Wind_Speed
15 13 12 12 13 14 17 19 17 13 10 9 7 8 10 15 18 19 17 17 16 16 16 17 16 19 18 17 15 12 7 14 13 10 7 8 8 7 9 9 7 6 13 21 27 24 25 25 29 32 31 37 29 8
14 12 11 10 12 14 15 17 18 14 11 8 8 4 7 15 13 16 18 19 15 12 9 12 15 15 16 16 16 15 12 10 10 11 10 9 11 12 10 8 5 5 11 13 12 14 18 23 32 30 24 27 21 24
13 10 9 9 11 13 14 16 18 16 11 8 6 7 7 10 14 13 15 15 19 12 13 5 9 17 14 16 17 15 10 11 13 8 10 10 8 15 13 18 19 9 10 12 21 25 30 30 27 15 14 12 19 19
10 9 8 9 11 12 14 15 17 17 11 10 7 6 6 7 11 12 12 13 15 15 6 10 16 20 14 13 10 16 14 9 11 7 8 9 11 9 14 14 17 22 16 19 13 16 6 8 8 8 3 10 13 31
8 8 7 8 10 12 13 15 17 17 12 10 8 7 8 9 11 15 12 8 11 11 11 8 12 11 21 15 13 7 11 13 13 12 12 11 16 11 10 15 10 27 19 22 20 9 9 10 11 5 2 11 13 21
7 7 6 7 9 11 12 15 17 16 11 9 8 6 7 8 9 12 8 9 9 10 14 6 6 15 20 20 11 5 6 9 2 7 8 9 11 12 12 11 23 30 25 17 17 7 11 8 7 7 0 8 13 18
7 6 5 6 8 9 12 14 16 13 10 10 8 7 9 7 7 9 10 10 9 8 11 11 7 12 18 18 15 6 8 3 6 7 8 9 6 7 7 19 19 21 25 22 18 15 15 13 12 10 5 5 7 12
7 6 4 5 6 9 11 13 13 12 11 10 8 9 8 7 6 7 10 10 10 9 7 6 10 13 16 14 14 11 5 3 4 5 8 8 3 4 8 12 15 17 17 24 25 22 19 15 13 8 8 5 3 5
7 5 4 4 5 8 10 12 13 12 10 10 9 9 8 8 9 8 9 8 9 7 6 7 16 11 17 14 12 11 4 4 5 8 4 9 9 9 11 13 12 17 18 19 20 18 19 19 17 15 13 7 8 9
8 6 5 4 5 8 10 12 13 12 10 11 11 11 7 10 8 7 7 9 6 7 10 11 16 15 11 17 9 8 4 3 6 3 6 9 12 12 10 10 10 13 15 16 20 23 23 21 22 24 20 14 9 6
8 7 6 4 5 8 10 11 13 12 10 11 10 8 8 9 6 5 8 7 6 8 6 13 15 18 13 13 14 5 5 5 3 2 5 8 11 13 10 11 11 10 13 14 16 17 20 22 22 21 22 21 19 13
8 7 6 5 5 7 9 11 12 12 10 10 8 8 6 5 5 4 5 5 5 5 9 13 13 15 19 15 7 5 4 4 3 3 3 7 6 11 13 12 13 15 11 13 16 20 22 26 27 23 21 21 21 20
8 7 6 5 6 7 9 10 12 11 8 8 5 5 4 3 3 4 5 11 8 13 12 13 17 19 20 11 7 6 5 6 4 3 4 6 4 7 10 10 10 13 19 17 14 17 18 23 22 27 24 22 19 19
8 7 6 5 7 7 8 9 11 10 7 6 4 5 2 4 5 10 11 13 14 13 12 17 18 23 17 9 6 4 3 3 3 3 7 8 5 8 7 8 10 11 13 19 18 13 18 18 21 21 24 25 23 19
8 7 6 6 7 8 8 8 10 9 6 4 3 4 5 7 12 12 13 16 17 13 14 18 16 26 19 1 4 3 3 3 4 4 9 10 13 11 8 8 8 10 10 13 17 14 16 19 18 18 17 21 26 21
7 7 6 7 7 8 8 8 9 8 7 4 4 4 8 12 13 14 15 18 18 18 20 25 14 6 6 8 6 4 5 4 7 10 8 12 14 8 8 8 10 8 10 8 9 9 12 12 14 13 13 13 22 24
7 5 7 9 7 7 7 8 9 8 3 3 3 7 14 9 13 14 16 18 17 12 16 11 8 5 7 5 5 5 5 8 9 8 9 15 13 8 8 8 9 8 8 8 8 8 9 9 10 13 16 14 14 20
6 5 7 8 7 8 7 7 7 4 5 4 8 9 10 13 14 15 15 11 14 14 8 9 8 7 2 5 7 8 9 7 5 8 10 11 11 11 8 9 9 8 7 7 8 6 6 6 7 9 11 13 11 12
5 5 5 5 5 4 4 5 4 3 3 5 7 10 10 15 17 17 10 13 16 13 8 12 5 5 6 9 9 9 9 5 9 11 6 9 10 11 12 11 8 7 6 10 6 6 8 10 3 5 7 7 9 9
5 5 4 4 4 3 2 3 3 2 2 7 8 8 11 11 12 11 8 11 9 8 13 12 9 8 12 12 15 16 12 10 11 11 8 8 4 12 12 13 7 8 7 11 8 4 7 1 5 7 7 7 7 7
3 4 4 5 4 5 4 3 3 4 6 4 8 7 8 10 9 9 9 9 10 12 13 11 12 11 13 13 13 12 11 9 11 9 2 8 11 10 8 12 6 7 8 9 6 4 5 3 3 7 5 5 5 5
2 3 5 5 5 4 4 5 4 6 4 4 7 7 6 8 10 7 7 8 10 10 9 7 9 10 14 17 17 10 11 11 10 10 11 9 5 7 8 5 8 3 6 5 4 13 3 5 6 1 5 5 5 5
2 3 3 3 4 4 4 5 3 3 4 5 8 7 7 9 10 9 3 7 10 12 9 13 15 15 13 9 14 12 13 13 12 8 7 10 16 7 3 4 7 7 4 13 6 2 6 3 8 4 2 3 4 5
4 4 5 3 4 4 4 3 4 3 4 5 6 6 7 9 9 4 4 9 10 11 16 19 13 11 11 11 18 19 14 16 13 13 14 12 4 4 5 5 7 3 6 7 11 13 6 6 4 1 4 1 1 4
4 4 4 5 5 4 2 4 3 5 5 6 6 5 7 9 6 4 3 7 10 9 13 12 11 14 14 13 11 13 19 11 9 12 13 11 8 5 14 18 0 3 3 6 7 4 4 5 0 4 2 2 2 2
4 5 5 5 4 4 4 4 3 4 6 5 6 8 9 7 4 2 6 9 10 14 14 12 10 8 8 10 10 10 10 7 7 12 4 3 9 8 3 4 5 6 3 3 8 10 7 5 5 8 4 2 2 1
6 4 6 9 7 6 4 6 6 5 7 7 8 9 9 8 4 4 9 19 15 18 17 13 12 10 10 10 11 12 8 7 5 1 8 6 4 5 2 4 2 1 4 1 1 4 5 3 3 9 5 2 3 2
8 6 7 6 6 5 5 5 5 6 7 6 8 7 7 8 8 11 12 19 16 17 17 18 19 16 13 12 8 8 9 10 10 8 7 10 7 4 2 1 2 1 2 2 5 6 4 5 3 3 1 1 2 0
7 5 7 8 7 6 6 4 9 10 2 9 10 9 9 19 18 18 22 16 14 17 11 11 16 12 14 17 13 7 3 1 7 14 12 6 7 7 6 7 8 9 4 2 4 2 7 6 3 3 2 3 1 2
5 7 6 5 8 8 11 7 8 15 16 14 16 15 17 18 20 20 23 20 13 14 15 15 11 12 11 10 13 11 9 5 6 4 3 4 4 5 7 8 9 4 4 5 4 5 4 6 5 6 4 3 2 1
5 6 6 8 10 9 10 10 18 19 18 16 11 6 14 19 18 17 18 17 16 14 15 14 15 15 13 12 10 10 9 7 5 4 6 6 4 4 6 7 6 6 3 2 4 2 2 3 2 0 0 3 3 1
5 6 6 10 14 5 8 13 12 7 10 16 19 27 12 16 14 14 11 13 18 13 12 13 15 14 13 11 10 9 7 6 5 4 4 5 4 5 7 5 3 2 4 3 3 3 3 1 1 1 3 4 4 5
6 7 9 11 12 15 14 13 15 17 20 20 20 1 7 5 9 13 13 13 15 11 12 13 12 11 10 10 9 8 7 6 6 6 5 5 5 5 7 5 3 3 3 2 1 2 2 3 3 3 5 7 7 7
Wind_Direction
316 326 335 334 339 344 346 354 358 358 354 354 356 19 20 31 27 34 35 29 31 50 54 48 44 43 36 28 29 31 23 351 352 6 325 336 313 318 301 303 275 242 217 224 236 242 249 245 252 256 257 253 243 201
311 317 330 330 336 342 345 349 356 349 346 336 0 7 1 13 11 14 23 27 23 16 31 35 38 34 33 43 37 33 29 0 6 19 19 354 335 348 349 3 345 248 236 243 230 232 241 255 259 264 272 246 238 207
307 313 323 327 334 339 344 350 356 353 346 335 339 347 309 342 358 355 6 10 16 8 3 10 336 338 352 22 35 35 20 16 18 12 5 0 345 8 4 22 20 343 340 270 269 269 263 259 265 279 254 248 221 179
296 309 312 326 335 336 341 349 353 352 344 347 330 324 332 317 350 349 345 350 1 6 3 298 349 358 333 328 7 27 20 359 1 351 360 8 4 317 358 343 360 360 352 340 329 329 340 27 280 305 240 223 184 163
288 301 303 326 334 339 340 345 349 349 346 344 340 308 306 314 332 341 345 351 357 355 331 307 314 331 3 344 312 325 2 23 3 359 342 347 18 40 19 20 356 357 357 355 336 345 335 344 327 26 247 157 154 165
280 290 298 323 336 343 343 342 347 350 354 347 339 325 314 328 333 342 351 5 350 337 338 316 279 336 352 354 353 285 342 19 330 344 337 342 340 10 9 359 6 354 356 4 356 3 16 10 48 50 176 146 145 166
273 280 285 324 338 342 342 342 349 352 357 349 333 332 329 312 330 347 345 342 338 324 336 335 324 334 349 355 360 327 313 304 12 343 357 342 326 2 6 5 357 355 349 3 16 10 16 16 31 19 355 199 123 145
261 268 273 323 335 343 343 348 351 353 355 351 346 339 345 340 329 329 330 326 325 320 320 317 334 319 344 346 335 339 358 330 315 343 352 347 342 334 17 351 355 359 4 1 14 25 24 28 36 33 355 306 291 225
249 254 258 295 334 345 346 354 351 350 350 353 343 341 335 339 337 315 316 317 312 301 298 302 334 329 328 344 347 343 354 337 288 305 329 349 20 27 4 354 358 354 16 10 9 22 35 30 24 31 39 25 306 290
238 240 244 277 320 327 338 346 347 343 341 345 342 339 354 340 339 342 343 335 318 308 305 298 325 339 318 327 323 326 290 280 286 343 312 338 3 7 1 350 356 355 9 15 16 16 24 36 31 29 25 18 9 5
232 237 243 272 305 321 329 333 340 341 338 338 346 330 334 341 349 358 1 13 324 327 309 342 318 326 306 310 312 294 288 286 290 308 314 323 352 353 353 345 357 356 360 9 16 16 16 21 25 27 28 28 30 26
229 233 244 267 297 311 323 328 334 339 335 339 330 328 330 351 1 18 344 316 290 324 317 308 306 316 315 316 308 288 257 261 250 295 266 310 358 338 341 346 347 347 356 355 5 12 9 13 14 16 21 24 29 31
228 233 248 268 289 300 310 323 330 333 327 329 326 342 347 359 335 272 301 337 313 310 305 312 314 294 307 301 308 267 248 241 297 244 282 304 312 336 336 341 351 346 341 347 356 359 4 4 5 0 11 14 24 28
229 240 255 271 286 293 299 314 326 326 317 335 308 324 292 284 291 312 312 309 303 301 307 313 309 294 288 277 265 249 262 298 288 314 312 321 340 334 324 340 350 349 348 332 342 350 343 355 360 7 0 1 11 23
229 246 257 270 283 291 295 305 321 318 306 313 275 273 280 304 308 324 313 311 302 307 323 308 312 312 304 248 272 337 338 327 320 305 351 322 325 329 297 314 330 339 345 331 339 339 345 353 5 17 7 356 354 9
233 245 261 272 283 291 293 300 318 316 304 281 247 276 312 323 321 328 324 334 330 334 312 323 313 303 338 340 10 72 350 268 293 340 342 307 316 328 330 335 323 331 334 334 341 346 353 359 4 3 6 18 347 353
239 248 263 274 284 285 289 296 313 311 265 258 319 308 293 332 319 319 318 322 341 345 331 326 325 315 323 340 310 292 304 298 309 324 303 292 309 319 328 331 323 305 310 320 327 350 345 359 2 1 4 24 11 356
240 246 263 271 280 279 277 291 304 280 275 308 301 315 312 311 310 322 321 328 343 334 335 327 351 22 4 310 318 312 298 303 305 295 288 303 308 319 331 306 317 308 289 293 328 342 341 356 7 359 3 8 8 12
256 269 263 265 271 264 282 295 292 281 276 290 298 311 322 321 320 331 344 329 346 6 358 349 352 348 332 334 333 326 327 304 300 290 289 278 333 333 328 332 334 304 292 286 298 306 313 336 0 353 352 0 7 4
254 255 242 248 249 253 281 268 308 284 323 302 309 311 315 304 331 347 338 349 14 341 342 339 343 335 347 349 344 336 328 310 294 292 263 305 306 332 316 313 297 289 281 259 267 247 305 21 330 331 340 19 21 356
243 235 241 250 255 251 235 221 272 282 291 313 310 332 318 327 342 339 344 355 7 355 336 338 352 351 334 328 332 311 317 277 283 279 302 285 296 301 296 302 309 290 273 256 237 295 336 266 325 313 331 360 10 11
243 253 256 259 255 238 223 213 211 259 322 320 333 321 329 327 331 340 30 344 347 348 336 329 331 347 327 329 344 345 314 317 310 291 283 289 286 290 336 323 291 284 234 245 334 284 255 305 287 309 341 353 11 352
255 269 253 208 202 210 212 217 269 279 319 310 328 331 331 334 327 18 332 342 353 343 340 338 345 350 339 335 321 327 341 338 309 281 273 255 270 323 300 292 299 331 312 266 214 242 251 239 311 265 7 324 337 35
256 273 215 220 217 183 237 234 272 289 292 330 323 324 324 335 359 349 1 351 352 343 339 347 356 347 338 344 338 320 314 322 312 309 303 312 237 238 356 303 261 287 277 282 273 236 189 271 237 282 251 219 300 296
267 219 212 202 184 203 212 218 242 279 295 305 326 318 321 340 349 330 335 1 345 335 336 342 332 329 333 337 333 325 330 346 316 318 319 304 299 285 316 307 278 15 356 311 198 249 3 76 152 189 113 252 220 1
232 222 201 192 217 197 213 253 240 286 294 300 302 308 327 327 298 304 335 327 312 324 342 348 339 351 317 322 327 321 316 318 321 297 296 311 307 321 317 99 47 31 29 1 320 301 177 306 261 243 175 158 93 146
221 230 228 206 197 213 232 255 281 273 278 290 307 311 316 321 296 311 332 355 341 339 348 355 345 346 342 339 339 348 6 27 101 331 302 339 338 303 254 76 70 132 29 24 178 304 94 70 65 77 102 61 32 333
223 220 211 220 211 210 248 277 280 278 274 268 311 298 314 310 298 281 304 331 341 347 351 2 1 358 358 358 14 6 16 31 39 32 1 23 43 39 65 84 79 43 122 145 94 20 69 108 105 121 221 114 105 15
211 211 196 206 210 227 252 265 281 270 317 311 295 306 301 291 302 296 291 338 344 355 0 353 357 5 356 2 11 18 14 29 315 324 7 16 34 36 42 73 73 61 42 63 166 184 179 170 172 170 125 104 98 89
200 204 206 219 233 246 265 235 293 311 310 304 292 287 294 309 323 307 302 353 355 351 345 346 353 354 355 354 358 10 15 26 123 104 354 44 67 96 100 97 91 73 76 88 56 62 82 78 64 77 79 60 67 346
204 207 225 227 241 245 240 291 300 297 296 298 303 285 285 316 313 316 318 346 356 344 347 350 349 351 349 353 351 348 7 23 43 85 124 114 100 97 108 107 96 95 82 93 107 101 74 74 111 158 329 291 335 108
220 234 250 272 281 301 325 312 305 301 292 300 292 286 266 299 314 333 326 325 338 344 339 335 345 348 353 360 358 1 7 22 36 62 99 137 127 114 104 100 96 113 102 74 39 73 85 249 216 245 263 299 339 360
237 249 265 273 276 289 303 308 298 291 289 299 305 148 276 297 280 342 319 313 330 329 331 334 343 348 354 1 4 12 23 37 47 55 66 67 70 77 114 138 145 119 98 107 97 79 74 50 15 28 42 44 43 39
Height
3156 3153 3151 3150 3147 3144 3141 3137 3133 3130 3127 3125 3123 3120 3118 3116 3114 3111 3107 3104 3102 3099 3098 3094 3092 3088 3085 3081 3078 3077 3075 3072 3068 3066 3064 3062 3059 3056 3051 3048 3045 3045 3044 3043 3045 3044 3042 3039 3040 3041 3038 3031 3030 3024
3153 3151 3149 3147 3145 3142 3140 3136 3132 3129 3126 3124 3122 3120 3120 3117 3115 3112 3109 3105 3103 3101 3100 3097 3093 3091 3088 3084 3080 3078 3076 3072 3069 3067 3065 3062 3060 3057 3052 3048 3043 3044 3043 3039 3039 3035 3033 3030 3027 3026 3024 3023 3020 3023
3150 3148 3146 3145 3143 3141 3139 3135 3131 3128 3125 3123 3121 3120 3118 3117 3115 3113 3110 3107 3104 3100 3098 3096 3096 3092 3088 3085 3081 3079 3076 3073 3070 3068 3066 3064 3062 3059 3054 3050 3045 3042 3039 3035 3033 3029 3026 3021 3018 3016 3014 3014 3013 3012
3146 3145 3143 3143 3141 3139 3137 3134 3130 3127 3125 3123 3120 3119 3118 3116 3114 3112 3110 3107 3104 3102 3101 3100 3095 3090 3087 3085 3082 3079 3076 3073 3071 3069 3067 3064 3062 3060 3056 3050 3046 3042 3037 3032 3026 3023 3017 3014 3014 3011 3009 3007 3002 3006
3144 3143 3141 3140 3139 3138 3135 3132 3129 3126 3123 3121 3119 3118 3117 3115 3113 3111 3108 3106 3104 3105 3101 3099 3095 3092 3087 3083 3080 3080 3077 3074 3072 3070 3068 3065 3061 3059 3054 3049 3044 3041 3036 3031 3025 3021 3017 3012 3008 3006 3003 3003 3005 3006
3141 3140 3139 3138 3136 3136 3134 3131 3128 3125 3122 3120 3118 3116 3115 3113 3112 3109 3108 3106 3103 3102 3098 3097 3095 3091 3087 3082 3079 3079 3076 3075 3073 3073 3070 3066 3062 3060 3056 3051 3047 3041 3035 3031 3025 3021 3017 3010 3006 3004 3005 3004 3003 3005
3139 3138 3137 3136 3135 3134 3132 3130 3127 3124 3121 3119 3117 3115 3113 3112 3110 3109 3108 3105 3103 3101 3099 3095 3093 3091 3087 3082 3078 3076 3075 3075 3075 3074 3072 3068 3065 3061 3058 3053 3049 3046 3038 3030 3024 3019 3016 3011 3005 3003 3004 3004 3000 3001
3136 3136 3135 3134 3133 3132 3131 3128 3126 3123 3121 3118 3116 3114 3112 3111 3109 3108 3106 3104 3102 3101 3098 3096 3094 3090 3087 3084 3080 3075 3074 3072 3073 3073 3071 3068 3065 3061 3059 3055 3049 3046 3041 3032 3025 3020 3016 3012 3008 3003 3002 3001 3001 3000
3133 3133 3133 3132 3132 3131 3130 3127 3125 3122 3120 3117 3115 3114 3112 3110 3108 3106 3104 3102 3100 3101 3098 3095 3093 3090 3085 3082 3079 3076 3073 3073 3072 3069 3067 3065 3061 3059 3058 3054 3050 3045 3041 3036 3030 3024 3018 3013 3008 3005 3004 2999 2995 2997
3131 3131 3130 3130 3131 3130 3129 3126 3124 3121 3119 3116 3114 3112 3110 3109 3106 3105 3103 3101 3099 3098 3096 3094 3091 3088 3086 3081 3079 3078 3075 3074 3070 3070 3065 3062 3060 3058 3056 3055 3050 3045 3042 3038 3032 3024 3019 3015 3011 3008 3003 2999 2995 2999
3128 3128 3128 3128 3129 3128 3127 3125 3123 3120 3118 3115 3113 3114 3111 3108 3107 3104 3103 3102 3101 3099 3096 3093 3090 3087 3084 3080 3077 3076 3074 3070 3068 3069 3067 3062 3060 3058 3056 3054 3050 3047 3043 3039 3036 3031 3024 3018 3012 3009 3006 3002 3000 2997
3125 3126 3126 3126 3127 3126 3125 3123 3122 3119 3117 3115 3113 3111 3110 3108 3106 3106 3106 3104 3100 3097 3095 3093 3090 3085 3080 3077 3074 3072 3071 3069 3067 3067 3065 3062 3060 3059 3055 3053 3050 3046 3043 3040 3036 3032 3027 3022 3018 3015 3010 3006 3003 3000
3123 3123 3123 3124 3124 3124 3123 3122 3120 3117 3115 3114 3112 3111 3111 3110 3108 3106 3103 3101 3098 3097 3094 3091 3088 3079 3075 3073 3071 3070 3068 3066 3065 3064 3063 3061 3059 3059 3056 3052 3050 3048 3042 3039 3037 3033 3029 3025 3020 3017 3013 3010 3007 3004
3120 3121 3121 3121 3122 3122 3121 3120 3118 3116 3114 3113 3114 3112 3112 3109 3107 3105 3102 3100 3097 3093 3090 3088 3083 3076 3069 3068 3066 3066 3064 3065 3063 3061 3062 3060 3058 3057 3055 3052 3050 3049 3045 3038 3037 3033 3030 3026 3023 3020 3015 3012 3009 3004
3117 3118 3118 3119 3120 3120 3119 3117 3116 3114 3113 3113 3114 3112 3110 3108 3106 3102 3098 3095 3087 3083 3085 3083 3079 3073 3066 3061 3065 3066 3066 3066 3065 3062 3061 3058 3056 3055 3053 3052 3050 3049 3047 3041 3037 3034 3030 3027 3024 3022 3020 3015 3012 3008
3115 3115 3116 3117 3118 3117 3116 3115 3114 3113 3111 3111 3110 3110 3109 3106 3104 3101 3097 3094 3091 3087 3083 3079 3075 3071 3069 3068 3065 3066 3068 3066 3064 3062 3061 3056 3055 3054 3052 3052 3049 3048 3046 3043 3041 3038 3035 3033 3030 3028 3026 3024 3017 3014
3112 3113 3114 3115 3115 3114 3113 3113 3112 3111 3109 3110 3110 3109 3106 3102 3102 3099 3096 3092 3087 3085 3083 3078 3075 3072 3071 3069 3066 3064 3064 3064 3063 3062 3061 3056 3054 3052 3051 3050 3049 3047 3045 3042 3041 3038 3036 3035 3033 3030 3028 3026 3025 3021
3110 3111 3112 3112 3112 3111 3111 3110 3110 3109 3109 3109 3109 3107 3105 3102 3099 3098 3093 3088 3086 3084 3081 3077 3073 3072 3070 3068 3066 3065 3062 3062 3062 3061 3056 3055 3053 3050 3049 3048 3045 3044 3042 3041 3040 3039 3037 3036 3035 3035 3032 3030 3028 3026
3108 3109 3110 3110 3109 3109 3109 3109 3108 3108 3109 3109 3108 3105 3103 3099 3095 3092 3090 3086 3082 3080 3079 3075 3073 3072 3071 3067 3065 3063 3061 3060 3059 3056 3053 3051 3050 3048 3046 3044 3042 3041 3041 3039 3039 3039 3038 3034 3035 3035 3033 3031 3029 3027
3106 3107 3108 3107 3108 3108 3108 3109 3107 3106 3106 3107 3105 3103 3102 3098 3094 3092 3088 3087 3085 3082 3078 3076 3074 3072 3069 3067 3064 3062 3061 3059 3057 3054 3052 3050 3049 3047 3046 3043 3043 3039 3038 3036 3035 3034 3034 3034 3036 3033 3031 3030 3029 3027
3105 3105 3106 3106 3106 3106 3106 3108 3108 3108 3105 3105 3104 3102 3100 3096 3094 3092 3090 3087 3082 3084 3080 3076 3074 3071 3069 3066 3064 3060 3056 3055 3053 3050 3048 3051 3048 3046 3043 3040 3038 3038 3035 3033 3031 3032 3033 3032 3032 3030 3028 3029 3028 3026
3104 3104 3104 3104 3104 3104 3104 3105 3106 3105 3104 3104 3103 3100 3099 3096 3093 3091 3087 3087 3085 3083 3080 3075 3073 3070 3068 3063 3059 3055 3053 3050 3049 3047 3045 3044 3043 3040 3038 3038 3036 3032 3032 3031 3032 3031 3030 3030 3029 3028 3029 3027 3027 3025
3103 3103 3103 3103 3104 3103 3105 3104 3104 3104 3104 3103 3101 3099 3098 3095 3092 3088 3087 3084 3082 3080 3077 3073 3069 3066 3063 3060 3056 3053 3051 3049 3046 3043 3042 3039 3036 3035 3036 3035 3035 3032 3031 3029 3026 3027 3028 3027 3027 3028 3027 3028 3026 3026
3101 3101 3101 3103 3102 3102 3103 3103 3103 3103 3102 3102 3100 3099 3096 3093 3090 3089 3087 3086 3083 3079 3075 3070 3068 3066 3065 3058 3058 3053 3051 3049 3045 3041 3038 3034 3034 3033 3032 3033 3030 3029 3029 3028 3027 3024 3022 3024 3026 3028 3026 3027 3027 3026
3101 3101 3101 3100 3101 3102 3102 3102 3102 3102 3101 3100 3099 3097 3094 3091 3090 3087 3085 3084 3082 3078 3075 3072 3070 3064 3062 3060 3058 3052 3047 3047 3044 3038 3036 3032 3031 3030 3029 3026 3026 3028 3027 3024 3022 3023 3019 3020 3024 3025 3025 3026 3026 3025
3097 3098 3099 3099 3100 3101 3101 3100 3100 3100 3099 3098 3097 3094 3091 3090 3088 3086 3083 3082 3078 3075 3070 3068 3065 3064 3061 3056 3052 3049 3045 3043 3042 3036 3033 3032 3030 3029 3027 3026 3025 3027 3027 3026 3024 3020 3020 3022 3022 3021 3023 3024 3024 3023
3095 3096 3095 3096 3098 3100 3100 3099 3098 3098 3097 3095 3094 3092 3090 3088 3084 3083 3080 3077 3075 3071 3068 3064 3061 3058 3054 3051 3047 3043 3041 3038 3037 3036 3032 3031 3029 3027 3026 3026 3026 3026 3026 3025 3026 3023 3023 3024 3024 3024 3024 3025 3026 3024
3092 3094 3095 3096 3096 3098 3098 3097 3096 3095 3093 3090 3091 3089 3088 3087 3084 3079 3076 3074 3072 3069 3065 3061 3057 3054 3051 3048 3046 3043 3039 3037 3036 3036 3033 3032 3030 3028 3027 3026 3024 3024 3024 3023 3023 3023 3024 3024 3024 3026 3026 3026 3025 3025
3090 3092 3094 3095 3096 3096 3095 3095 3093 3086 3085 3089 3087 3085 3085 3080 3078 3074 3069 3069 3068 3066 3064 3061 3057 3054 3050 3047 3045 3043 3042 3043 3042 3036 3036 3033 3032 3031 3028 3027 3028 3028 3027 3025 3025 3024 3024 3025 3026 3026 3026 3026 3025 3025
3089 3091 3093 3093 3093 3092 3092 3087 3089 3087 3086 3085 3084 3082 3079 3077 3074 3072 3069 3069 3067 3065 3063 3061 3057 3054 3052 3049 3046 3043 3041 3040 3039 3042 3040 3038 3035 3033 3031 3031 3031 3031 3030 3029 3029 3027 3026 3027 3027 3027 3028 3027 3027 3025
3089 3090 3090 3089 3087 3086 3084 3085 3085 3084 3083 3081 3079 3079 3075 3075 3072 3070 3068 3067 3066 3064 3062 3059 3056 3054 3051 3049 3047 3044 3042 3040 3038 3037 3037 3038 3036 3034 3031 3032 3033 3034 3032 3032 3031 3031 3030 3029 3029 3028 3027 3026 3025 3025
3088 3088 3088 3085 3080 3061 3076 3079 3081 3082 3079 3076 3073 3069 3072 3072 3070 3068 3067 3066 3065 3063 3061 3059 3055 3053 3051 3049 3047 3044 3042 3040 3039 3038 3037 3037 3036 3034 3035 3035 3035 3034 3033 3034 3032 3031 3031 3031 3029 3028 3027 3025 3024 3023
3087 3086 3085 3084 3081 3078 3078 3079 3077 3075 3073 3071 3070 3068 3067 3067 3068 3068 3065 3064 3064 3061 3059 3057 3055 3053 3051 3049 3047 3045 3043 3042 3040 3039 3038 3037 3036 3035 3035 3036 3035 3035 3035 3034 3034 3032 3032 3030 3029 3027 3026 3025 3025 3024